Yeovilton, United Kingdom

11:21 AM BST on June 23, 2018 (GMT +0100)
Yeovil Radar Navy

Weather History for EGDY - October, 2017

Change the Weather History Date:

Friday, October 20, 2017

  Actual Average Record
Temperature  
Mean Temperature 55 °F -  
Max Temperature 59 °F 52 °F 62 °F (2001)
Min Temperature 51 °F 40 °F 30 °F (2007)
Degree Days  
Heating Degree Days 10    
Growing Degree Days 5 (Base 50)    
Moisture  
Dew Point 48 °F    
Average Humidity 74    
Maximum Humidity 94    
Minimum Humidity 46    
Precipitation  
Precipitation 0.00 in - - ()
Sea Level Pressure  
Sea Level Pressure 29.64 in    
Wind  
Wind Speed 16 mph ()    
Max Wind Speed 24 mph    
Max Gust Speed 37 mph    
Visibility 8.4 miles    
Events Rain    
Averages and records for this station are not official NWS values.
T = Trace of Precipitation, MM = Missing Value Source: Averaged Metar Reports

Daily Weather History Graph

Daily Weather History Graph

Search for Another Location

Airport or City:

Astronomy

Oct. 20, 2017 Rise Set
Actual Time 7:42 AM BST 6:07 PM BST
Civil Twilight 7:08 AM BST 6:41 PM BST
Nautical Twilight 6:30 AM BST 7:19 PM BST
Astronomical Twilight 5:52 AM BST 7:57 PM BST
Moon 8:04 AM BST (10/20) 6:54 PM BST (10/20)
Length of Visible Light 11h 32m
Length of Day
10h 25m
New Moon, 0% of the Moon is Illuminated
Oct 20
New Moon
Oct 27
First Quarter
Nov 4
Full
Nov 10
Last Quarter
Nov 18
New

Hourly Weather History & Observations

Time (BST) Temp. Dew Point Humidity Pressure Visibility Wind Dir Wind Speed Gust Speed Precip Events Conditions
12:50 AM 55.4 °F 50.0 °F 82% 29.39 in 6.2 mi SSW 20.7 mph - N/A   Mostly Cloudy
1:00 AM 54 °F 50 °F 82% 29.39 in 31 mi SSW 20.7 mph - - Rain Rain
1:50 AM 53.6 °F 51.8 °F 94% 29.39 in 5.6 mi SSW 23.0 mph 34.5 mph N/A   Scattered Clouds
2:00 AM 54 °F 51 °F 86% 29.41 in 6 mi SSW 23.0 mph - -   Partly Cloudy
2:50 AM 53.6 °F 51.8 °F 94% 29.42 in 6.2 mi SW 16.1 mph - N/A   Mostly Cloudy
3:00 AM 54 °F 51 °F 88% 29.44 in 9 mi SW 16.1 mph - -   Overcast
3:50 AM 55.4 °F 50.0 °F 82% 29.47 in 6.2 mi WSW 18.4 mph 31.1 mph N/A   Mostly Cloudy
4:00 AM 55 °F 50 °F 79% 29.48 in 9 mi WSW 18.4 mph - -   Overcast
4:50 AM 55.4 °F 48.2 °F 77% 29.50 in 6.2 mi WSW 20.7 mph 32.2 mph N/A   Mostly Cloudy
5:00 AM 55 °F 49 °F 73% 29.53 in 9 mi WSW 20.7 mph - -   Overcast
5:50 AM 53.6 °F 48.2 °F 82% 29.56 in 6.2 mi West 24.2 mph 36.8 mph N/A   Mostly Cloudy
6:00 AM 53 °F 49 °F 80% 29.58 in 9 mi West 24.2 mph - -   Mostly Cloudy
6:50 AM 53.6 °F 48.2 °F 82% 29.62 in 6.2 mi West 20.7 mph - N/A   Mostly Cloudy
7:00 AM 53 °F 48 °F 76% 29.62 in 9 mi West 20.7 mph - -   Mostly Cloudy
7:50 AM 51.8 °F 48.2 °F 88% 29.65 in 6.2 mi West 12.7 mph 24.2 mph N/A   Mostly Cloudy
8:00 AM 52 °F 48 °F 82% 29.68 in 9 mi West 12.7 mph - -   Mostly Cloudy
8:50 AM 51.8 °F 46.4 °F 82% 29.71 in 6.2 mi West 11.5 mph - N/A   Mostly Cloudy
9:00 AM 53 °F 46 °F 70% 29.72 in 11 mi West 11.5 mph - -   Mostly Cloudy
9:50 AM 53.6 °F 44.6 °F 72% 29.74 in 6.2 mi WSW 15.0 mph - N/A   Scattered Clouds
10:50 AM 55.4 °F 44.6 °F 67% 29.77 in 6.2 mi WSW 11.5 mph - N/A   Scattered Clouds
11:00 AM 55 °F 44 °F 56% 29.78 in 12 mi WSW 11.5 mph - -   Scattered Clouds
11:50 AM 55.4 °F 42.8 °F 63% 29.77 in 6.2 mi WSW 13.8 mph - N/A   Mostly Cloudy
12:00 PM 56 °F 42 °F 49% 29.79 in 12 mi WSW 13.8 mph - -   Mostly Cloudy
12:50 PM 57.2 °F 42.8 °F 59% 29.77 in 6.2 mi WSW 11.5 mph - N/A   Scattered Clouds
1:00 PM 58 °F 43 °F 46% 29.80 in 16 mi WSW 11.5 mph - -   Partly Cloudy
1:50 PM 55.4 °F 41.0 °F 58% 29.77 in 6.2 mi SW 11.5 mph - N/A   Mostly Cloudy
2:00 PM 56 °F 42 °F 48% 29.80 in 16 mi SW 11.5 mph - -   Partly Cloudy
2:50 PM 57.2 °F 44.6 °F 63% 29.77 in 6.2 mi SW 10.4 mph - N/A   Scattered Clouds
3:00 PM 57 °F 44 °F 51% 29.79 in 25 mi SW 10.4 mph - -   Partly Cloudy
3:50 PM 57.2 °F 48.2 °F 72% 29.77 in 6.2 mi SSW 15.0 mph - N/A   Scattered Clouds
4:00 PM 57 °F 47 °F 62% 29.78 in 16 mi SSW 15.0 mph - -   Scattered Clouds
4:50 PM 57.2 °F 48.2 °F 72% 29.74 in 6.2 mi South 15.0 mph - N/A   Scattered Clouds
5:00 PM 57 °F 47 °F 61% 29.76 in 17 mi South 15.0 mph - -   Mostly Cloudy
5:50 PM 57.2 °F 50.0 °F 77% 29.71 in 6.2 mi South 12.7 mph - N/A   Mostly Cloudy
6:00 PM 57 °F 49 °F 68% 29.74 in 15 mi South 12.7 mph - -   Partly Cloudy
6:50 PM 57.2 °F 50.0 °F 77% 29.71 in 6.2 mi SSE 12.7 mph - N/A   Mostly Cloudy
7:00 PM 58 °F 50 °F 66% 29.72 in 15 mi SSE 12.7 mph - -   Scattered Clouds
7:50 PM 59.0 °F 50.0 °F 72% 29.68 in 6.2 mi SE 13.8 mph - N/A   Mostly Cloudy
8:00 PM 58 °F 51 °F 69% 29.69 in 17 mi SE 13.8 mph - - Rain Rain
9:50 PM 57.2 °F 55.4 °F 94% 29.59 in 3.1 mi SSE 17.3 mph - N/A Rain Rain
10:00 PM 57 °F 55 °F 92% 29.61 in 3 mi SSE 17.3 mph - - Rain Rain
10:50 PM 59.0 °F 57.2 °F 94% 29.56 in - South 18.4 mph 31.1 mph N/A Rain Rain
11:00 PM 59 °F 57 °F 92% 29.58 in 2 mi South 18.4 mph - - Rain Rain
11:50 PM 59.0 °F 53.6 °F 82% 29.56 in 6.2 mi SSW 23.0 mph 34.5 mph N/A Rain Rain